Location: ?????
(38.3715°N, 23.0573°E)
Time: 08:27:07
(UTC+00:00)

Cosmos 1697 Rocket - Pass Details

Date: 03 August 2024
Orbit: 831 x 843 km, 71.0° (Epoch: 14 September)

Event Time Altitude Azimuth Distance (km) Brightness Sun altitude
Exits shadow 21:49:55 41° 22° (NNE) 1,187 3.7 -33.5°
Drops below altitude 10° 21:53:30 10° 23° (NNE) 2,445 5.7 -33.6°
Sets 21:55:56 0° 23° (NNE) 3,383 6.6 -33.7°
